This is the latest recevied weather packets stored in our database for station/object KD8UYA. If no packets are shown the sender has not sent any weather packets the latest 10 day(s).
| Time | Temp. | Humidity | Pressure | Rain* | Wind** | Luminosity | Snow |
|---|---|---|---|---|---|---|---|
| 1778323520 | 10.56° C | 98% | 1005.2 hPa | 0 mm | - | - | - |
| 1778322619 | 10.56° C | 98% | 1005.1 hPa | 0 mm | - | - | - |
| 1778321723 | 10.56° C | 98% | 1005.1 hPa | 0 mm | - | - | - |
| 1778320816 | 10.56° C | 98% | 1005.2 hPa | 0 mm | - | - | - |
| 1778319915 | 10.56° C | 98% | 1005.3 hPa | 0 mm | - | - | - |
| 1778319014 | 10.56° C | 98% | 1005.5 hPa | 0 mm | - | - | - |
| 1778318112 | 10.56° C | 98% | 1005.5 hPa | 0 mm | - | - | - |
| 1778317211 | 10.56° C | 98% | 1005.7 hPa | 0 mm | - | - | - |
| 1778316310 | 10.56° C | 98% | 1005.9 hPa | 0 mm | - | - | - |
| 1778315425 | 10.56° C | 98% | 1005.9 hPa | 0 mm | - | - | - |
| 1778314511 | 10.56° C | 98% | 1006 hPa | 0 mm | - | - | - |
| 1778313608 | 10.56° C | 98% | 1005.9 hPa | 0 mm | - | - | - |
| 1778312704 | 10.56° C | 98% | 1006 hPa | 0.51 mm | - | - | - |
| 1778311803 | 10.56° C | 98% | 1005.9 hPa | 0.76 mm | - | - | - |
| 1778310902 | 10.56° C | 98% | 1006 hPa | 1.27 mm | - | - | - |
| 1778310061 | 10.56° C | 98% | 1006.1 hPa | 1.27 mm | - | - | - |
| 1778309162 | 10.56° C | 98% | 1006.3 hPa | 1.02 mm | - | - | - |
| 1778308260 | 10.56° C | 98% | 1006.4 hPa | 2.29 mm | - | - | - |
| 1778307354 | 10.56° C | 98% | 1006.5 hPa | 2.54 mm | - | - | - |
| 1778306466 | 10.56° C | 98% | 1006.8 hPa | 3.05 mm | - | - | - |
| 1778305551 | 10.56° C | 97% | 1006.9 hPa | 3.3 mm | - | - | - |
| 1778304670 | 10.56° C | 97% | 1007.1 hPa | 2.54 mm | - | - | - |
| 1778303751 | 10.56° C | 97% | 1007.1 hPa | 2.03 mm | - | - | - |
| 1778302845 | 10° C | 97% | 1007.1 hPa | 1.52 mm | - | - | - |
| 1778301964 | 10° C | 97% | 1007.2 hPa | 1.27 mm | - | - | - |
* Rain latest hour (hover to see other rain measurements)
** Current wind speed in m/s (hover to see current wind gust speed)